TimeEST,TemperatureF,Dew PointF,Humidity,Sea Level PressureIn,VisibilityMPH,Wind Direction,Wind SpeedMPH,Gust SpeedMPH,PrecipitationIn,Events,Conditions,WindDirDegrees,DateUTC
12:54 AM,30.9,30.0,96,30.14,5.0,SW,3.5,-,N/A,,Clear,230,2013-01-17 05:54:00
1:54 AM,30.9,30.0,96,30.14,4.0,Calm,Calm,-,N/A,,Clear,0,2013-01-17 06:54:00
2:54 AM,30.9,30.0,96,30.15,5.0,Calm,Calm,-,N/A,,Clear,0,2013-01-17 07:54:00
3:54 AM,30.0,30.0,100,30.16,4.0,SSE,3.5,-,N/A,,Clear,150,2013-01-17 08:54:00
4:54 AM,30.0,30.0,100,30.13,4.0,Calm,Calm,-,N/A,,Clear,0,2013-01-17 09:54:00
5:54 AM,30.0,30.0,100,30.15,5.0,Calm,Calm,-,N/A,,Scattered Clouds,0,2013-01-17 10:54:00
6:54 AM,30.9,28.0,89,30.15,7.0,NE,3.5,-,N/A,,Mostly Cloudy,50,2013-01-17 11:54:00
7:54 AM,30.0,28.0,92,30.16,6.0,NNE,5.8,-,N/A,,Clear,30,2013-01-17 12:54:00
8:54 AM,30.0,27.0,88,30.18,7.0,NNE,6.9,-,N/A,,Clear,20,2013-01-17 13:54:00
9:54 AM,30.9,27.0,85,30.21,7.0,NNE,8.1,-,N/A,,Clear,20,2013-01-17 14:54:00
10:54 AM,30.9,28.0,89,30.18,7.0,North,11.5,-,N/A,,Clear,10,2013-01-17 15:54:00
11:54 AM,33.1,28.9,85,30.18,9.0,NE,11.5,-,N/A,,Clear,40,2013-01-17 16:54:00
12:54 PM,34.0,30.0,85,30.14,8.0,NE,13.8,-,N/A,,Clear,50,2013-01-17 17:54:00
1:54 PM,37.0,30.9,79,30.14,10.0,NE,16.1,-,N/A,,Clear,50,2013-01-17 18:54:00
2:54 PM,37.9,32.0,79,30.11,10.0,NE,15.0,-,N/A,,Clear,40,2013-01-17 19:54:00
3:54 PM,37.9,30.0,73,30.16,10.0,NE,12.7,-,N/A,,Scattered Clouds,40,2013-01-17 20:54:00
4:54 PM,37.0,30.0,76,30.20,10.0,NE,10.4,-,N/A,,Clear,40,2013-01-17 21:54:00
5:54 PM,34.0,28.0,79,30.25,10.0,ENE,9.2,-,N/A,,Clear,60,2013-01-17 22:54:00
6:54 PM,30.9,27.0,85,30.27,10.0,NE,4.6,-,N/A,,Clear,50,2013-01-17 23:54:00
7:54 PM,30.9,27.0,85,30.30,10.0,Calm,Calm,-,N/A,,Clear,0,2013-01-18 00:54:00
8:54 PM,30.9,28.0,89,30.32,9.0,WNW,3.5,-,N/A,,Scattered Clouds,300,2013-01-18 01:54:00
9:54 PM,30.9,28.0,89,30.37,9.0,WNW,4.6,-,N/A,,Scattered Clouds,300,2013-01-18 02:54:00
10:54 PM,30.0,26.1,85,30.38,10.0,NW,8.1,-,N/A,,Clear,320,2013-01-18 03:54:00
11:54 PM,28.9,24.1,82,30.40,10.0,NW,9.2,-,N/A,,Clear,320,2013-01-18 04:54:00